This is the latest recevied weather packets stored in our database for station/object KE5WTH-14. If no packets are shown the sender has not sent any weather packets the latest 10 day(s).
| Time | Temp. | Humidity | Pressure | Rain* | Wind** | Luminosity | Snow |
|---|---|---|---|---|---|---|---|
| 1777476631 | 15° C | 83% | 1016.4 hPa | 0 mm | - | 114 W/m² | - |
| 1777476571 | 15° C | 83% | 1016.5 hPa | 0 mm | - | 114 W/m² | - |
| 1777476512 | 15° C | 83% | 1016.5 hPa | 0 mm | - | 114 W/m² | - |
| 1777476451 | 15° C | 83% | 1016.5 hPa | 0 mm | - | 118 W/m² | - |
| 1777476391 | 15° C | 84% | 1016.6 hPa | 0 mm | - | 116 W/m² | - |
| 1777476331 | 15° C | 84% | 1016.5 hPa | 0 mm | - | 116 W/m² | - |
| 1777476272 | 15° C | 84% | 1016.3 hPa | 0 mm | - | 118 W/m² | - |
| 1777476205 | 15° C | 84% | 1016.2 hPa | 0 mm | - | 123 W/m² | - |
| 1777476145 | 15° C | 84% | 1016.1 hPa | 0 mm | - | 123 W/m² | - |
| 1777476076 | 15° C | 84% | 1016.1 hPa | 0 mm | - | 113 W/m² | - |
| 1777476015 | 15° C | 84% | 1016.2 hPa | 0 mm | - | 113 W/m² | - |
| 1777475953 | 15° C | 84% | 1016.3 hPa | 0 mm | - | 109 W/m² | - |
| 1777475892 | 15° C | 84% | 1016.3 hPa | 0 mm | - | 109 W/m² | - |
| 1777475830 | 15° C | 84% | 1016.5 hPa | 0 mm | - | 106 W/m² | - |
| 1777475770 | 15° C | 84% | 1016.6 hPa | 0 mm | - | 100 W/m² | - |
| 1777475710 | 15° C | 84% | 1016.6 hPa | 0 mm | - | 88 W/m² | - |
| 1777475645 | 15° C | 84% | 1016.8 hPa | 0 mm | - | 88 W/m² | - |
| 1777475586 | 15° C | 84% | 1016.8 hPa | 0 mm | - | 83 W/m² | - |
| 1777475522 | 15° C | 84% | 1016.9 hPa | 0 mm | - | 83 W/m² | - |
| 1777475463 | 15° C | 84% | 1016.9 hPa | 0 mm | - | 84 W/m² | - |
| 1777475407 | 15° C | 84% | 1016.9 hPa | 0 mm | - | 84 W/m² | - |
| 1777475342 | 15° C | 84% | 1016.9 hPa | 0 mm | - | 86 W/m² | - |
| 1777475309 | 15° C | 84% | 1016.8 hPa | 0 mm | - | 86 W/m² | - |
| 1777475282 | 15° C | 84% | 1016.7 hPa | 0 mm | - | 74 W/m² | - |
| 1777475258 | 15° C | 84% | 1016.7 hPa | 0 mm | - | 74 W/m² | - |
* Rain latest hour (hover to see other rain measurements)
** Current wind speed in m/s (hover to see current wind gust speed)